This is the latest recevied weather packets stored in our database for station/object RK6MF-10. If no packets are shown the sender has not sent any weather packets the latest 10 day(s).
| Time | Temp. | Humidity | Pressure | Rain* | Wind** | Luminosity | Snow |
|---|---|---|---|---|---|---|---|
| 1777505190 | 6.67° C | 100% | 1015 hPa | - | - | - | - |
| 1777504290 | 7.22° C | 100% | 1014.9 hPa | - | - | - | - |
| 1777503390 | 7.22° C | 100% | 1014.9 hPa | - | - | - | - |
| 1777502489 | 7.22° C | 100% | 1015 hPa | - | - | - | - |
| 1777501588 | 7.22° C | 100% | 1014.9 hPa | - | - | - | - |
| 1777500688 | 7.22° C | 100% | 1014.8 hPa | - | - | - | - |
| 1777498890 | 7.78° C | 100% | 1014.8 hPa | - | - | - | - |
| 1777497990 | 8.33° C | 100% | 1014.8 hPa | - | - | - | - |
| 1777497090 | 8.33° C | 100% | 1014.8 hPa | - | - | - | - |
| 1777496190 | 7.78° C | 100% | 1015 hPa | - | - | - | - |
| 1777495290 | 8.33° C | 100% | 1015 hPa | - | - | - | - |
| 1777494390 | 8.89° C | 100% | 1014.9 hPa | - | - | - | - |
| 1777493490 | 9.44° C | 100% | 1014.9 hPa | - | - | - | - |
| 1777492590 | 9.44° C | 100% | 1014.8 hPa | - | - | - | - |
| 1777491690 | 9.44° C | 100% | 1014.8 hPa | - | - | - | - |
| 1777490790 | 9.44° C | 100% | 1014.9 hPa | - | - | - | - |
| 1777489889 | 9.44° C | 100% | 1014.9 hPa | - | - | - | - |
| 1777488989 | 8.89° C | 100% | 1015 hPa | - | - | - | - |
| 1777488089 | 9.44° C | 100% | 1015.1 hPa | - | - | - | - |
| 1777487189 | 9.44° C | 100% | 1015.1 hPa | - | - | - | - |
| 1777486289 | 10° C | 91% | 1015.1 hPa | - | - | - | - |
| 1777485389 | 10° C | 84% | 1015.1 hPa | - | - | - | - |
| 1777484489 | 10.56° C | 81% | 1015 hPa | - | - | - | - |
| 1777483589 | 10° C | 88% | 1014.9 hPa | - | - | - | - |
| 1777482689 | 10° C | 91% | 1014.8 hPa | - | - | - | - |
* Rain since midnight (hover to see other rain measurements)
** Current wind speed in m/s (hover to see current wind gust speed)